DL6MB-14 Weather Reports


time (UTC)temp
F
wind
direction
speed
knots
gust
knots
rain 1hr
in
rain 24hr
in
rain mn
in
humidity
%
barometer
mb
20260507023533 46 344 1.7 3.5 0.00 0.43 0.00 89 1011.5
20260507022528 46 9 0.9 2.6 0.00 0.44 0.00 89 1011.6
20260507021523 46 340 0.0 1.7 0.00 0.45 0.00 88 1011.5
20260507020518 46 345 0.9 2.6 0.00 0.45 0.00 88 1011.5
20260507015533 46 4 0.9 2.6 0.00 0.46 0.00 88 1011.4
20260507014530 46 321 0.9 3.5 0.00 0.47 0.00 88 1011.4
20260507013527 46 349 1.7 3.5 0.00 0.47 0.00 88 1011.3
20260507012543 46 342 0.0 3.5 0.00 0.48 0.00 87 1011.3
20260507011519 46 349 0.9 2.6 0.00 0.49 0.00 87 1011.1
20260507010534 46 3 0.9 2.6 0.00 0.49 0.00 87 1011.1
20260507005550 46 341 0.9 2.6 0.00 0.50 0.00 87 1011.1
20260507004526 46 321 0.9 2.6 0.00 0.51 0.00 87 1011.0
20260507003520 46 331 0.9 2.6 0.00 0.51 0.00 87 1011.1
20260507002537 46 333 0.9 1.7 0.00 0.52 0.00 87 1011.0
20260507001532 46 318 0.9 3.5 0.00 0.53 0.00 87 1011.0
20260507000528 47 329 0.9 2.6 0.00 0.53 0.00 87 1011.0
20260506235524 47 338 0.9 2.6 0.00 0.54 0.00 87 1010.9
20260506234521 47 329 1.7 3.5 0.00 0.54 0.00 86 1010.9
20260506233517 47 328 0.9 5.2 0.00 0.55 0.00 86 1010.8
20260506232533 47 315 0.9 3.5 0.00 0.55 0.00 86 1010.8
20260506231528 47 323 0.9 3.5 0.00 0.56 0.00 85 1010.8
20260506230545 47 19 0.0 0.9 0.00 0.56 0.00 85 1010.8
20260506225540 47 323 0.9 1.7 0.00 0.57 0.00 84 1010.7
20260506224515 47 320 0.9 1.7 0.00 0.57 0.00 84 1010.7
20260506223533 48 317 0.9 1.7 0.00 0.57 0.00 83 1010.7
20260506222528 48 320 0.9 3.5 0.00 0.57 0.00 83 1010.7
20260506221524 48 323 0.9 1.7 0.00 0.57 0.00 83 1010.5
20260506220519 48 331 0.0 1.7 0.00 0.57 0.00 83 1010.5
20260506215516 48 322 0.9 1.7 0.00 0.57 0.57 82 1010.5
20260506214533 48 355 0.9 2.6 0.00 0.57 0.57 82 1010.5
20260506213530 48 35 0.0 1.7 0.00 0.57 0.57 83 1010.4
20260506212544 48 8 0.9 2.6 0.00 0.57 0.57 83 1010.4
20260506211520 48 29 0.0 1.7 0.00 0.57 0.57 82 1010.4
20260506210516 48 33 0.0 1.7 0.00 0.58 0.57 82 1010.3
20260506205530 48 31 0.9 2.6 0.00 0.58 0.57 82 1010.3
20260506204526 48 20 0.9 1.7 0.00 0.58 0.57 83 1010.2
20260506203521 48 37 0.9 2.6 0.00 0.58 0.57 83 1010.2
20260506202517 48 34 0.0 2.6 0.00 0.59 0.57 84 1010.1
20260506201534 48 0.0 0.0 0.00 0.59 0.57 84 1010.0
20260506200531 48 352 0.9 1.7 0.00 0.59 0.57 84 1010.0
20260506194521 49 21 0.0 1.7 0.00 0.59 0.57 82 1010.0
20260506193517 49 16 0.9 2.6 0.00 0.59 0.57 81 1009.9
20260506192533 49 16 0.9 2.6 0.00 0.59 0.57 82 1009.7
20260506191529 49 17 0.9 3.5 0.00 0.59 0.57 83 1009.7
20260506190524 49 36 0.9 2.6 0.00 0.59 0.57 83 1009.5
20260506185541 49 42 0.9 1.7 0.00 0.59 0.57 83 1009.4
20260506184517 49 45 0.0 1.7 0.00 0.59 0.57 83 1009.4
20260506183553 49 47 0.9 1.7 0.00 0.59 0.57 83 1009.4
20260506182529 49 50 1.7 3.5 0.00 0.59 0.57 82 1009.3
20260506181525 49 67 0.9 5.2 0.00 0.59 0.57 82 1009.0
20260506180520 49 26 0.9 3.5 0.00 0.59 0.57 83 1008.9
20260506175537 49 58 0.9 2.6 0.00 0.59 0.57 83 1008.8
20260506174552 49 39 1.7 3.5 0.00 0.59 0.57 83 1008.7
20260506173530 49 46 1.7 5.2 0.00 0.59 0.57 82 1008.6
20260506172525 49 81 2.6 6.1 0.00 0.59 0.57 82 1008.6
20260506171542 49 65 1.7 6.1 0.00 0.59 0.57 83 1008.6
20260506170539 49 52 2.6 5.2 0.00 0.59 0.57 83 1008.5
20260506165534 49 45 1.7 7.0 0.00 0.59 0.57 83 1008.5
20260506164530 49 53 3.5 7.8 0.00 0.59 0.57 84 1008.5
20260506163527 49 49 0.9 3.5 0.00 0.59 0.57 85 1008.4
20260506162522 49 46 1.7 5.2 0.00 0.59 0.57 86 1008.3
20260506161518 49 38 2.6 6.1 0.00 0.59 0.57 87 1008.4
20260506160534 49 36 2.6 6.1 0.00 0.59 0.57 87 1008.4
20260506155528 49 34 2.6 6.1 0.00 0.60 0.57 88 1008.4
20260506154525 49 37 1.7 6.1 0.00 0.60 0.57 87 1008.3
20260506153541 49 45 2.6 8.7 0.00 0.60 0.57 88 1008.3
20260506152537 49 43 2.6 7.0 0.00 0.60 0.57 89 1008.1
20260506151534 49 10 2.6 6.1 0.00 0.60 0.57 89 1008.2
20260506150529 49 42 0.9 5.2 0.00 0.60 0.57 89 1008.1
20260506145525 49 51 2.6 6.1 0.00 0.60 0.57 90 1008.1
20260506144520 48 36 1.7 7.0 0.00 0.60 0.57 91 1007.8
20260506143537 48 51 1.7 5.2 0.00 0.60 0.57 91 1007.9
20260506142532 48 13 2.6 7.8 0.01 0.60 0.57 91 1007.8
20260506141529 48 40 2.6 5.2 0.01 0.60 0.57 91 1007.8
20260506140523 48 41 1.7 5.2 0.01 0.60 0.57 91 1007.8
20260506135519 48 22 3.5 7.0 0.01 0.60 0.57 92 1007.8
20260506134516 48 30 2.6 7.8 0.01 0.60 0.57 92 1007.7
20260506133533 48 44 2.6 7.0 0.01 0.60 0.57 91 1007.6
20260506132528 48 45 0.9 5.2 0.00 0.59 0.56 91 1007.7
20260506131523 48 58 2.6 5.2 0.00 0.59 0.56 91 1007.7
20260506130519 48 31 2.6 7.0 0.00 0.59 0.56 92 1007.7
20260506125534 48 30 2.6 7.0 0.00 0.59 0.56 92 1007.6
20260506124532 48 353 1.7 7.0 0.00 0.59 0.56 92 1007.5
20260506123547 48 52 2.6 6.1 0.00 0.59 0.56 92 1007.4
20260506122524 48 36 2.6 5.2 0.01 0.59 0.56 92 1007.4
20260506121520 48 55 2.6 7.0 0.01 0.59 0.56 92 1007.5
20260506120516 48 17 1.7 3.5 0.01 0.59 0.56 92 1007.3
20260506115532 48 21 2.6 7.0 0.01 0.59 0.56 92 1007.2
20260506114528 48 58 2.6 5.2 0.01 0.59 0.56 93 1007.3
20260506113524 48 43 1.7 5.2 0.02 0.59 0.56 93 1007.3
20260506112540 48 50 1.7 6.1 0.01 0.58 0.55 92 1007.3
20260506111515 47 46 3.5 7.8 0.01 0.58 0.55 92 1007.2
20260506110552 47 43 2.6 7.8 0.02 0.58 0.55 93 1007.1
20260506105528 47 38 2.6 7.8 0.02 0.58 0.55 93 1007.1
20260506104525 46 31 3.5 9.6 0.02 0.59 0.55 93 1007.1
20260506103519 47 41 2.6 7.0 0.02 0.58 0.54 94 1007.0
20260506102555 47 41 2.6 5.2 0.03 0.58 0.54 94 1006.9
20260506101532 46 43 2.6 6.1 0.04 0.58 0.54 94 1007.0
20260506100529 46 32 1.7 3.5 0.04 0.57 0.53 94 1006.8
20260506095524 46 45 3.5 8.7 0.05 0.57 0.53 94 1006.8
20260506094521 46 42 2.6 8.7 0.06 0.57 0.53 94 1006.8
20260506093517 46 37 1.7 5.2 0.06 0.56 0.52 94 1006.6
20260506092533 45 55 2.6 5.2 0.06 0.55 0.51 94 1006.7
20260506091550 45 34 2.6 6.1 0.06 0.54 0.50 95 1006.6
20260506090525 45 34 2.6 7.0 0.06 0.53 0.49 95 1006.6
20260506085522 45 43 2.6 7.0 0.06 0.52 0.48 95 1006.5
20260506084518 45 26 3.5 8.7 0.06 0.51 0.47 95 1006.5
20260506083534 46 36 1.7 6.1 0.06 0.50 0.46 95 1006.5
20260506082529 45 43 3.5 7.8 0.06 0.49 0.45 95 1006.3
20260506081546 46 29 3.5 6.1 0.06 0.48 0.44 95 1006.3
20260506080522 46 24 0.9 3.5 0.06 0.47 0.43 95 1006.3
20260506072527 46 30 2.6 6.1 0.06 0.43 0.39 95 1006.1
20260506071523 46 28 2.6 8.7 0.06 0.42 0.38 95 1006.0
20260506070519 46 39 2.6 7.0 0.06 0.41 0.37 95 1005.9
20260506061518 47 48 2.6 7.8 0.05 0.39 0.32 96 1005.7
20260506060533 47 19 2.6 6.1 0.05 0.38 0.31 96 1005.5
20260506050550 48 23 1.7 3.5 0.05 0.34 0.26 96 1005.5
20260506044523 48 355 1.7 3.5 0.05 0.32 0.24 96 1005.4
20260506043519 48 354 1.7 5.2 0.05 0.32 0.23 96 1005.5
20260506042535 48 16 2.6 7.0 0.04 0.31 0.22 96 1005.4
20260506041531 49 342 1.7 6.1 0.05 0.32 0.22 96 1005.5
20260506040526 49 3 1.7 3.5 0.05 0.31 0.21 96 1005.5
20260506035523 49 19 1.7 2.6 0.05 0.30 0.20 96 1005.6
20260506034519 49 27 1.7 5.2 0.04 0.29 0.19 96 1005.6
20260506033556 49 49 0.9 2.6 0.04 0.28 0.18 96 1005.6
20260506032530 49 39 1.7 3.5 0.05 0.28 0.18 96 1005.8
20260506031545 49 29 1.7 5.2 0.05 0.27 0.17 96 1005.7
20260506030522 49 35 2.6 7.8 0.04 0.26 0.16 96 1005.8
20260506025519 49 23 1.7 3.5 0.04 0.25 0.15 96 1005.9
20260506024533 49 57 1.7 3.5 0.05 0.25 0.15 96 1006.0